timestamp,wind_dir_avg,wind_spd_max_dir,wind_spd_avg,wind_spd_gust,battery_voltage,lat,long
2019-03-04 00:00:00+00:00,28.0,28.0,7.35,8.58,,47.59359,-54.27349
2019-03-04 00:10:00+00:00,22.0,22.0,7.8,8.93,,47.59359,-54.27349
2019-03-04 00:20:00+00:00,23.0,26.0,8.24,9.29,,47.59359,-54.27349
2019-03-04 00:30:00+00:00,30.0,35.0,8.36,9.24,,47.59359,-54.27349
2019-03-04 00:40:00+00:00,22.0,32.0,6.86,8.04,,47.59359,-54.27349
2019-03-04 00:50:00+00:00,35.0,36.0,8.1,8.73,,47.59359,-54.27349
2019-03-04 01:00:00+00:00,34.0,31.0,8.2,9.37,,47.59359,-54.27349
2019-03-04 01:10:00+00:00,24.0,27.0,8.31,9.23,,47.59359,-54.27349
2019-03-04 01:20:00+00:00,28.0,35.0,8.39,9.73,,47.59359,-54.27349
2019-03-04 01:30:00+00:00,29.0,33.0,9.18,10.39,,47.59359,-54.27349
2019-03-04 01:40:00+00:00,27.0,32.0,7.89,9.1,,47.59359,-54.27349
2019-03-04 01:50:00+00:00,13.0,11.0,7.48,8.14,,47.59359,-54.27349
2019-03-04 02:00:00+00:00,31.0,33.0,7.43,8.31,,47.59359,-54.27349
2019-03-04 02:10:00+00:00,23.0,25.0,6.52,7.73,,47.59359,-54.27349
2019-03-04 02:20:00+00:00,17.0,18.0,7.34,8.32,,47.59359,-54.27349
2019-03-04 02:30:00+00:00,23.0,28.0,7.21,8.76,,47.59359,-54.27349
2019-03-04 02:40:00+00:00,18.0,13.0,5.88,6.64,,47.59359,-54.27349
2019-03-04 02:50:00+00:00,19.0,18.0,5.65,7.17,,47.59359,-54.27349
2019-03-04 03:00:00+00:00,6.0,5.0,5.75,7.12,,47.59359,-54.27349
2019-03-04 03:10:00+00:00,12.0,12.0,7.08,8.01,,47.59359,-54.27349
2019-03-04 03:20:00+00:00,348.0,352.0,4.82,5.67,,47.59359,-54.27349
2019-03-04 03:30:00+00:00,5.0,12.0,4.55,5.26,,47.59359,-54.27349
2019-03-04 03:40:00+00:00,7.0,5.0,5.03,5.99,,47.59359,-54.27349
2019-03-04 03:50:00+00:00,351.0,345.0,5.69,6.83,,47.59359,-54.27349
2019-03-04 04:00:00+00:00,335.0,338.0,5.63,6.54,,47.59359,-54.27349
2019-03-04 04:10:00+00:00,340.0,338.0,5.74,6.83,,47.59359,-54.27349
2019-03-04 04:20:00+00:00,340.0,337.0,5.37,6.16,,47.59359,-54.27349
2019-03-04 04:30:00+00:00,326.0,324.0,5.53,6.22,,47.59359,-54.27349
2019-03-04 04:40:00+00:00,334.0,339.0,6.28,7.74,,47.59359,-54.27349
2019-03-04 04:50:00+00:00,339.0,336.0,6.09,6.99,,47.59359,-54.27349
2019-03-04 05:00:00+00:00,352.0,339.0,5.47,6.69,,47.59359,-54.27349
2019-03-04 05:10:00+00:00,358.0,4.0,5.75,6.75,,47.59359,-54.27349
2019-03-04 05:20:00+00:00,359.0,2.0,5.48,6.43,,47.59359,-54.27349
2019-03-04 05:30:00+00:00,19.0,20.0,5.57,6.28,,47.59359,-54.27349
2019-03-04 05:40:00+00:00,9.0,4.0,5.47,6.43,,47.59359,-54.27349
2019-03-04 05:50:00+00:00,14.0,359.0,4.4,5.35,,47.59359,-54.27349
2019-03-04 06:00:00+00:00,0.0,0.0,4.65,5.39,,47.59359,-54.27349
2019-03-04 06:10:00+00:00,354.0,1.0,5.17,6.26,,47.59359,-54.27349
2019-03-04 06:20:00+00:00,341.0,331.0,4.54,5.23,,47.59359,-54.27349
2019-03-04 06:30:00+00:00,337.0,337.0,4.62,5.33,,47.59359,-54.27349
2019-03-04 06:40:00+00:00,341.0,336.0,5.18,6.03,,47.59359,-54.27349
2019-03-04 06:50:00+00:00,337.0,337.0,4.86,5.91,,47.59359,-54.27349
2019-03-04 07:00:00+00:00,355.0,1.0,5.06,5.69,,47.59359,-54.27349
2019-03-04 07:10:00+00:00,19.0,32.0,5.24,5.94,,47.59359,-54.27349
2019-03-04 07:20:00+00:00,29.0,22.0,4.93,6.1,,47.59359,-54.27349
2019-03-04 07:30:00+00:00,24.0,19.0,5.13,6.25,,47.59359,-54.27349
2019-03-04 07:40:00+00:00,33.0,34.0,4.97,5.88,,47.59359,-54.27349
2019-03-04 07:50:00+00:00,2.0,1.0,5.2,5.62,,47.59359,-54.27349
2019-03-04 08:00:00+00:00,325.0,312.0,3.81,4.78,,47.59359,-54.27349
2019-03-04 08:10:00+00:00,325.0,322.0,4.67,5.7,,47.59359,-54.27349
2019-03-04 08:20:00+00:00,323.0,331.0,4.19,5.79,,47.59359,-54.27349
2019-03-04 08:30:00+00:00,334.0,329.0,3.9,4.34,,47.59359,-54.27349
2019-03-04 08:40:00+00:00,356.0,354.0,3.47,4.0,,47.59359,-54.27349
2019-03-04 08:50:00+00:00,353.0,352.0,4.0,4.53,,47.59359,-54.27349
2019-03-04 09:00:00+00:00,333.0,333.0,3.42,3.95,,47.59359,-54.27349
2019-03-04 09:10:00+00:00,327.0,330.0,4.73,5.54,,47.59359,-54.27349
2019-03-04 09:20:00+00:00,337.0,340.0,4.24,5.05,,47.59359,-54.27349
2019-03-04 09:30:00+00:00,357.0,0.0,4.07,4.78,,47.59359,-54.27349
2019-03-04 09:40:00+00:00,350.0,346.0,4.43,5.02,,47.59359,-54.27349
2019-03-04 09:50:00+00:00,11.0,13.0,4.42,5.02,,47.59359,-54.27349
2019-03-04 10:00:00+00:00,358.0,355.0,3.86,4.43,,47.59359,-54.27349
2019-03-04 10:10:00+00:00,345.0,350.0,3.7,4.36,,47.59359,-54.27349
2019-03-04 10:20:00+00:00,326.0,336.0,4.33,5.04,,47.59359,-54.27349
2019-03-04 10:30:00+00:00,343.0,340.0,4.03,4.94,,47.59359,-54.27349
2019-03-04 10:40:00+00:00,348.0,351.0,5.08,5.66,,47.59359,-54.27349
2019-03-04 10:50:00+00:00,358.0,359.0,5.15,5.75,,47.59359,-54.27349
2019-03-04 11:00:00+00:00,11.0,14.0,5.26,5.89,,47.59359,-54.27349
2019-03-04 11:10:00+00:00,18.0,14.0,5.62,6.33,,47.59359,-54.27349
2019-03-04 11:20:00+00:00,29.0,34.0,4.49,5.53,,47.59359,-54.27349
2019-03-04 11:30:00+00:00,24.0,32.0,4.5,5.39,,47.59359,-54.27349
2019-03-04 11:40:00+00:00,8.0,10.0,4.55,6.43,,47.59359,-54.27349
2019-03-04 11:50:00+00:00,5.0,359.0,4.86,5.65,,47.59359,-54.27349
2019-03-04 12:00:00+00:00,359.0,359.0,4.85,5.25,,47.59359,-54.27349
2019-03-04 12:10:00+00:00,354.0,354.0,4.21,4.65,,47.59359,-54.27349
2019-03-04 12:20:00+00:00,4.0,359.0,4.43,5.12,,47.59359,-54.27349
2019-03-04 12:30:00+00:00,17.0,15.0,3.27,4.08,,47.59359,-54.27349
2019-03-04 12:40:00+00:00,39.0,39.0,3.23,3.71,,47.59359,-54.27349
2019-03-04 12:50:00+00:00,45.0,49.0,2.31,2.85,,47.59359,-54.27349
2019-03-04 13:00:00+00:00,28.0,31.0,1.53,2.07,,47.59359,-54.27349
2019-03-04 13:10:00+00:00,64.0,73.0,1.54,1.9,,47.59359,-54.27349
2019-03-04 13:20:00+00:00,328.0,336.0,0.39,0.72,,47.59359,-54.27349
2019-03-04 13:30:00+00:00,335.0,334.0,1.31,1.83,,47.59359,-54.27349
2019-03-04 13:40:00+00:00,323.0,306.0,1.66,2.0,,47.59359,-54.27349
2019-03-04 13:50:00+00:00,254.0,259.0,1.08,1.62,,47.59359,-54.27349
2019-03-04 14:00:00+00:00,186.0,175.0,0.59,1.01,,47.59359,-54.27349
2019-03-04 14:10:00+00:00,46.0,66.0,1.38,1.53,,47.59359,-54.27349
2019-03-04 14:20:00+00:00,117.0,70.0,0.92,1.55,,47.59359,-54.27349
2019-03-04 14:30:00+00:00,184.0,184.0,1.75,2.02,,47.59359,-54.27349
2019-03-04 14:40:00+00:00,196.0,196.0,1.74,2.26,,47.59359,-54.27349
2019-03-04 14:50:00+00:00,218.0,217.0,3.15,3.5,,47.59359,-54.27349
2019-03-04 15:00:00+00:00,217.0,229.0,2.91,3.42,,47.59359,-54.27349
2019-03-04 15:10:00+00:00,197.0,193.0,2.72,3.3,,47.59359,-54.27349
2019-03-04 15:20:00+00:00,168.0,167.0,2.62,3.03,,47.59359,-54.27349
2019-03-04 15:30:00+00:00,161.0,163.0,2.83,3.19,,47.59359,-54.27349
2019-03-04 15:40:00+00:00,152.0,156.0,2.66,3.12,,47.59359,-54.27349
2019-03-04 15:50:00+00:00,158.0,153.0,2.66,3.11,,47.59359,-54.27349
2019-03-04 16:00:00+00:00,192.0,188.0,2.02,2.34,,47.59359,-54.27349
2019-03-04 16:10:00+00:00,216.0,205.0,1.69,2.19,,47.59359,-54.27349
2019-03-04 16:20:00+00:00,233.0,240.0,3.98,4.58,,47.59359,-54.27349
2019-03-04 16:30:00+00:00,234.0,235.0,3.81,4.5,,47.59359,-54.27349
2019-03-04 16:40:00+00:00,219.0,219.0,2.42,2.76,,47.59359,-54.27349
2019-03-04 16:50:00+00:00,216.0,216.0,2.35,2.74,,47.59359,-54.27349
2019-03-04 17:00:00+00:00,235.0,233.0,3.64,4.29,,47.59359,-54.27349
2019-03-04 17:10:00+00:00,229.0,228.0,4.71,5.85,,47.59359,-54.27349
2019-03-04 17:20:00+00:00,231.0,229.0,4.81,5.38,,47.59359,-54.27349
2019-03-04 17:30:00+00:00,222.0,221.0,5.21,5.71,,47.59359,-54.27349
2019-03-04 17:40:00+00:00,231.0,232.0,5.83,6.63,,47.59359,-54.27349
2019-03-04 17:50:00+00:00,234.0,238.0,5.58,6.11,,47.59359,-54.27349
2019-03-04 18:00:00+00:00,227.0,225.0,5.66,6.51,,47.59359,-54.27349
2019-03-04 18:10:00+00:00,234.0,231.0,5.82,6.65,,47.59359,-54.27349
2019-03-04 18:20:00+00:00,239.0,249.0,4.36,5.59,,47.59359,-54.27349
2019-03-04 18:30:00+00:00,243.0,243.0,4.65,5.28,,47.59359,-54.27349
2019-03-04 18:40:00+00:00,243.0,250.0,4.49,5.44,,47.59359,-54.27349
2019-03-04 18:50:00+00:00,244.0,252.0,4.36,5.08,,47.59359,-54.27349
2019-03-04 19:00:00+00:00,246.0,248.0,4.74,5.61,,47.59359,-54.27349
2019-03-04 19:10:00+00:00,233.0,234.0,4.72,5.26,,47.59359,-54.27349
2019-03-04 19:20:00+00:00,235.0,236.0,5.05,5.54,,47.59359,-54.27349
2019-03-04 19:30:00+00:00,226.0,224.0,4.71,5.17,,47.59359,-54.27349
2019-03-04 19:40:00+00:00,230.0,233.0,4.41,4.84,,47.59359,-54.27349
2019-03-04 19:50:00+00:00,209.0,207.0,4.25,4.78,,47.59359,-54.27349
2019-03-04 20:00:00+00:00,202.0,201.0,5.23,5.74,,47.59359,-54.27349
2019-03-04 20:10:00+00:00,187.0,186.0,4.83,5.2,,47.59359,-54.27349
2019-03-04 20:20:00+00:00,175.0,172.0,5.81,6.36,,47.59359,-54.27349
2019-03-04 20:30:00+00:00,168.0,166.0,4.99,5.78,,47.59359,-54.27349
2019-03-04 20:40:00+00:00,163.0,163.0,4.82,5.43,,47.59359,-54.27349
2019-03-04 20:50:00+00:00,157.0,153.0,4.72,5.26,,47.59359,-54.27349
2019-03-04 21:00:00+00:00,172.0,172.0,7.26,8.06,,47.59359,-54.27349
2019-03-04 21:10:00+00:00,180.0,181.0,6.89,7.68,,47.59359,-54.27349
2019-03-04 21:20:00+00:00,183.0,184.0,6.72,7.69,,47.59359,-54.27349
2019-03-04 21:30:00+00:00,174.0,172.0,7.99,8.97,,47.59359,-54.27349
2019-03-04 21:40:00+00:00,172.0,171.0,7.55,8.22,,47.59359,-54.27349
2019-03-04 21:50:00+00:00,173.0,169.0,8.81,10.39,,47.59359,-54.27349
2019-03-04 22:00:00+00:00,170.0,170.0,7.14,8.02,,47.59359,-54.27349
2019-03-04 22:10:00+00:00,167.0,167.0,6.83,7.36,,47.59359,-54.27349
2019-03-04 22:20:00+00:00,170.0,167.0,7.8,8.66,,47.59359,-54.27349
2019-03-04 22:30:00+00:00,176.0,175.0,7.48,8.04,,47.59359,-54.27349
2019-03-04 22:40:00+00:00,161.0,155.0,6.48,7.95,,47.59359,-54.27349
2019-03-04 22:50:00+00:00,155.0,164.0,7.18,8.42,,47.59359,-54.27349
2019-03-04 23:00:00+00:00,156.0,146.0,6.7,8.81,,47.59359,-54.27349
2019-03-04 23:10:00+00:00,147.0,143.0,8.01,8.89,,47.59359,-54.27349
2019-03-04 23:20:00+00:00,144.0,140.0,8.01,9.64,,47.59359,-54.27349
2019-03-04 23:30:00+00:00,149.0,149.0,8.69,9.51,,47.59359,-54.27349
2019-03-04 23:40:00+00:00,153.0,152.0,8.6,9.64,,47.59359,-54.27349
2019-03-04 23:50:00+00:00,153.0,150.0,8.21,9.32,,47.59359,-54.27349
